Location: Vancouver
(49.2500°N, 123.1330°W)
Time: 23:18:09
(UTC-07:00)

BREEZE-M DEB (TANK) - Visible Passes

Search period start: 24 October 2014 00:00
Search period end: 02 November 2014 23:00
Orbit: 285 x 13634 km, 49.6° (Epoch: 23 October)

Date Brightness Start Highest point End Pass type
(mag) Time Alt. Az. Time Alt. Az. Time Alt. Az.
24 Oct 4.2 06:28:48 13° SW 06:32:45 70° SSE 06:49:12 10° ENE visible
26 Oct 4.0 05:19:25 31° S 05:20:57 41° SE 05:31:07 10° ENE visible
27 Oct 4.3 06:52:23 10° WSW 06:57:07 85° SSE 07:17:29 10° E visible
28 Oct 5.3 04:09:49 17° ESE 04:09:49 17° ESE 04:14:13 10° ENE visible
29 Oct 3.7 05:42:40 37° SSW 05:44:29 62° SSE 05:57:36 10° ENE visible
30 Oct 4.7 07:15:49 10° W 07:21:14 89° N 07:46:18 10° E visible
31 Oct 4.5 04:32:45 31° ESE 04:32:45 31° ESE 04:40:02 10° ENE visible
01 Nov 3.9 06:05:26 32° WSW 06:07:54 81° SSE 06:24:10 10° ENE visible
